TimeCST,TemperatureF,Dew PointF,Humidity,Sea Level PressureIn,VisibilityMPH,Wind Direction,Wind SpeedMPH,Gust SpeedMPH,PrecipitationIn,Events,Conditions,WindDirDegrees,DateUTC
12:53 AM,44.1,39.9,85,30.25,10.0,NW,3.5,-,0.00,,Overcast,320,2013-01-09 06:53:00
1:53 AM,45.0,41.0,86,30.25,10.0,Calm,Calm,-,0.00,,Scattered Clouds,0,2013-01-09 07:53:00
2:53 AM,44.1,41.0,89,30.25,9.0,Calm,Calm,-,N/A,,Mostly Cloudy,0,2013-01-09 08:53:00
3:53 AM,46.9,42.1,83,30.27,10.0,North,3.5,-,N/A,,Overcast,350,2013-01-09 09:53:00
4:17 AM,46.4,42.8,87,30.27,10.0,NNW,5.8,-,N/A,,Overcast,330,2013-01-09 10:17:00
4:53 AM,48.0,42.1,80,30.28,10.0,North,3.5,-,N/A,,Overcast,10,2013-01-09 10:53:00
5:53 AM,46.9,43.0,86,30.30,10.0,East,3.5,-,0.00,,Overcast,80,2013-01-09 11:53:00
6:16 AM,46.4,42.8,87,30.30,10.0,Calm,Calm,-,N/A,,Scattered Clouds,0,2013-01-09 12:16:00
6:35 AM,46.4,42.8,87,30.32,10.0,Calm,Calm,-,N/A,,Mostly Cloudy,0,2013-01-09 12:35:00
6:53 AM,45.0,42.1,90,30.34,6.0,Calm,Calm,-,N/A,,Overcast,0,2013-01-09 12:53:00
7:11 AM,44.6,42.8,93,30.34,7.0,Calm,Calm,-,N/A,,Overcast,0,2013-01-09 13:11:00
7:53 AM,46.0,44.1,93,30.37,5.0,Calm,Calm,-,N/A,,Overcast,0,2013-01-09 13:53:00
8:53 AM,48.0,44.1,86,30.40,7.0,Calm,Calm,-,N/A,,Overcast,0,2013-01-09 14:53:00
10:53 AM,54.0,45.0,72,30.38,10.0,NE,5.8,-,N/A,,Clear,40,2013-01-09 16:53:00
11:53 AM,55.9,46.0,69,30.36,10.0,NNE,5.8,-,N/A,,Overcast,30,2013-01-09 17:53:00
12:53 PM,57.0,44.1,62,30.35,10.0,NE,10.4,-,N/A,,Clear,50,2013-01-09 18:53:00
1:53 PM,57.9,45.0,62,30.35,10.0,ENE,8.1,-,N/A,,Clear,60,2013-01-09 19:53:00
2:53 PM,59.0,46.0,62,30.35,10.0,ENE,8.1,-,N/A,,Clear,70,2013-01-09 20:53:00
3:53 PM,57.0,45.0,64,30.36,10.0,ENE,4.6,-,N/A,,Clear,60,2013-01-09 21:53:00
4:53 PM,55.0,42.1,62,30.37,10.0,NE,8.1,-,N/A,,Clear,50,2013-01-09 22:53:00
5:53 PM,53.1,43.0,69,30.38,10.0,NE,9.2,-,N/A,,Clear,50,2013-01-09 23:53:00
6:53 PM,53.1,43.0,69,30.39,10.0,NE,6.9,-,N/A,,Clear,50,2013-01-10 00:53:00
7:53 PM,52.0,43.0,71,30.40,10.0,NE,9.2,-,N/A,,Clear,40,2013-01-10 01:53:00
8:53 PM,52.0,42.1,69,30.40,10.0,NE,10.4,-,N/A,,Partly Cloudy,40,2013-01-10 02:53:00
9:53 PM,51.1,42.1,71,30.40,10.0,NE,8.1,-,N/A,,Overcast,50,2013-01-10 03:53:00
10:53 PM,51.1,42.1,71,30.41,10.0,NE,9.2,-,N/A,,Overcast,40,2013-01-10 04:53:00
11:53 PM,48.9,42.1,77,30.39,10.0,NE,10.4,-,0.02,Rain,Light Rain,40,2013-01-10 05:53:00